When you browse on this site, cookies collect data to enhance your experience and personalize the content and advertising you see.
Visit our Privacy Policy to learn more. By continuing to use the site, you agree to this use of cookies and data.
  • In Lithuania
  • List of Countries
  • For 7 days
  • Water Temperature
  • Weather Map
  • Weather Widgets
  • user-avatar
    Login

    Hourly Weather Balho

    Today, 30 March, Monday

    Time Temperature Precipitation Wind Pressure Humidity
    00:00 +32°C° 0 mm 2 mps 734 mmHg 63%
    01:00 +31°C° 0 mm 2 mps 734 mmHg 64%
    02:00 +31°C° 0 mm 2 mps 734 mmHg 66%
    03:00 +30°C° 0 mm 3 mps 734 mmHg 67%
    04:00 +30°C° 0 mm 2 mps 734 mmHg 69%
    05:00 +29°C° 0 mm 2 mps 734 mmHg 71%
    06:00 +29°C° 0 mm 2 mps 735 mmHg 73%
    07:00 +30°C° 0 mm 2 mps 735 mmHg 69%
    08:00 +30°C° 0 mm 2 mps 736 mmHg 65%
    09:00 +31°C° 0 mm 2 mps 737 mmHg 61%
    10:00 +32°C° 0 mm 2 mps 737 mmHg 55%
    11:00 +35°C° 0 mm 2 mps 736 mmHg 49%
    12:00 +36°C° 0 mm 2 mps 736 mmHg 42%
    13:00 +37°C° 0 mm 2 mps 736 mmHg 39%
    14:00 +38°C° 0 mm 2 mps 735 mmHg 35%
    15:00 +39°C° 0 mm 2 mps 734 mmHg 32%
    16:00 +39°C° 0 mm 3 mps 734 mmHg 34%
    17:00 +38°C° 0 mm 3 mps 734 mmHg 35%
    18:00 +38°C° 0 mm 4 mps 734 mmHg 37%
    19:00 +37°C° 0 mm 4 mps 734 mmHg 44%
    20:00 +35°C° 0 mm 4 mps 735 mmHg 50%
    21:00 +34°C° 0 mm 4 mps 735 mmHg 57%
    22:00 +33°C° 0 mm 4 mps 735 mmHg 60%
    23:00 +33°C° 0 mm 3 mps 735 mmHg 63%

    Tomorrow, 31 March, Tuesday

    Time Temperature Precipitation Wind Pressure Humidity
    00:00 +31°C° 0 mm 3 mps 735 mmHg 66%
    01:00 +30°C° 0 mm 2 mps 735 mmHg 68%
    02:00 +30°C° 0 mm 2 mps 734 mmHg 69%
    03:00 +30°C° 0 mm 2 mps 734 mmHg 71%
    04:00 +30°C° 0 mm 2 mps 735 mmHg 71%
    05:00 +29°C° 0 mm 2 mps 735 mmHg 72%
    06:00 +29°C° 0 mm 2 mps 735 mmHg 73%
    07:00 +30°C° 0 mm 1 mps 736 mmHg 70%
    08:00 +30°C° 0 mm 1 mps 737 mmHg 67%
    09:00 +31°C° 0 mm 1 mps 738 mmHg 64%
    10:00 +34°C° 0 mm 2 mps 737 mmHg 57%
    11:00 +35°C° 0 mm 2 mps 737 mmHg 50%
    12:00 +37°C° 0 mm 2 mps 736 mmHg 44%
    13:00 +38°C° 0 mm 3 mps 736 mmHg 41%
    14:00 +39°C° 0 mm 3 mps 735 mmHg 38%
    15:00 +40°C° 0 mm 3 mps 735 mmHg 35%
    16:00 +40°C° 0 mm 4 mps 734 mmHg 37%
    17:00 +40°C° 0 mm 4 mps 734 mmHg 38%
    18:00 +39°C° 0 mm 5 mps 734 mmHg 40%
    19:00 +37°C° 0 mm 5 mps 734 mmHg 45%
    20:00 +36°C° 0 mm 5 mps 735 mmHg 50%
    21:00 +34°C° 0 mm 6 mps 735 mmHg 55%
    22:00 +34°C° 0 mm 5 mps 735 mmHg 57%
    23:00 +33°C° 0 mm 5 mps 735 mmHg 59%

    Day after tomorrow, 1 April, Wednesday

    Time Temperature Precipitation Wind Pressure Humidity
    00:00 +32°C° 0 mm 5 mps 735 mmHg 60%
    01:00 +32°C° 0 mm 5 mps 735 mmHg 63%
    02:00 +30°C° 0 mm 4 mps 735 mmHg 66%
    03:00 +29°C° 0 mm 4 mps 734 mmHg 69%
    04:00 +29°C° 0 mm 4 mps 735 mmHg 70%
    05:00 +29°C° 0 mm 3 mps 735 mmHg 71%
    06:00 +29°C° 0 mm 3 mps 736 mmHg 72%
    07:00 +30°C° 0 mm 3 mps 736 mmHg 67%
    08:00 +32°C° 0 mm 4 mps 737 mmHg 62%
    09:00 +33°C° 0 mm 4 mps 738 mmHg 56%
    10:00 +35°C° 0 mm 4 mps 737 mmHg 50%
    11:00 +36°C° 0 mm 5 mps 737 mmHg 44%
    12:00 +39°C° 0 mm 5 mps 736 mmHg 37%
    13:00 +39°C° 0 mm 6 mps 736 mmHg 36%
    14:00 +40°C° 0 mm 6 mps 735 mmHg 34%
    15:00 +40°C° 0 mm 6 mps 734 mmHg 33%
    16:00 +40°C° 0 mm 6 mps 734 mmHg 35%
    17:00 +39°C° 0 mm 5 mps 734 mmHg 36%
    18:00 +37°C° 0 mm 5 mps 734 mmHg 38%
    19:00 +36°C° 0 mm 5 mps 734 mmHg 42%
    20:00 +35°C° 0 mm 5 mps 735 mmHg 47%
    21:00 +34°C° 0 mm 5 mps 735 mmHg 52%
    22:00 +33°C° 0 mm 4 mps 735 mmHg 55%
    23:00 +32°C° 0 mm 4 mps 735 mmHg 58%

    2 April, Thursday

    Time Temperature Precipitation Wind Pressure Humidity
    00:00 +30°C° 0 mm 3 mps 734 mmHg 62%
    01:00 +30°C° 0 mm 3 mps 734 mmHg 65%
    02:00 +29°C° 0 mm 4 mps 734 mmHg 68%
    03:00 +29°C° 0 mm 4 mps 734 mmHg 71%
    04:00 +29°C° 0 mm 3 mps 734 mmHg 72%
    05:00 +28°C° 0 mm 3 mps 734 mmHg 73%
    06:00 +28°C° 0 mm 3 mps 735 mmHg 73%
    07:00 +29°C° 0 mm 3 mps 735 mmHg 68%
    08:00 +30°C° 0 mm 2 mps 736 mmHg 62%
    09:00 +31°C° 0 mm 2 mps 737 mmHg 57%
    10:00 +34°C° 0 mm 3 mps 736 mmHg 51%
    11:00 +36°C° 0 mm 3 mps 736 mmHg 44%
    12:00 +38°C° 0 mm 3 mps 736 mmHg 38%
    13:00 +38°C° 0 mm 4 mps 735 mmHg 36%
    14:00 +40°C° 0 mm 4 mps 734 mmHg 35%
    15:00 +40°C° 0 mm 4 mps 733 mmHg 33%
    16:00 +40°C° 0 mm 4 mps 733 mmHg 35%
    17:00 +38°C° 0 mm 4 mps 733 mmHg 37%
    18:00 +38°C° 0 mm 4 mps 733 mmHg 38%
    19:00 +37°C° 0 mm 4 mps 733 mmHg 42%
    20:00 +35°C° 0 mm 4 mps 734 mmHg 46%
    21:00 +34°C° 0 mm 4 mps 734 mmHg 49%
    22:00 +34°C° 0 mm 4 mps 734 mmHg 51%
    23:00 +33°C° 0 mm 3 mps 734 mmHg 53%

    3 April, Friday

    Time Temperature Precipitation Wind Pressure Humidity
    00:00 +31°C° 0 mm 3 mps 734 mmHg 54%
    01:00 +30°C° 0 mm 3 mps 734 mmHg 59%
    02:00 +30°C° 0 mm 3 mps 734 mmHg 63%
    03:00 +29°C° 0 mm 3 mps 733 mmHg 68%
    04:00 +28°C° 0 mm 2 mps 734 mmHg 70%
    05:00 +28°C° 0 mm 2 mps 734 mmHg 72%
    06:00 +28°C° 0 mm 2 mps 734 mmHg 74%
    07:00 +29°C° 0 mm 1 mps 735 mmHg 69%
    08:00 +30°C° 0 mm 1 mps 736 mmHg 64%
    09:00 +30°C° 0 mm 1 mps 736 mmHg 58%
    10:00 +32°C° 0 mm 1 mps 736 mmHg 51%
    11:00 +34°C° 0 mm 1 mps 736 mmHg 43%
    12:00 +36°C° 0 mm 1 mps 736 mmHg 35%
    13:00 +37°C° 0 mm 1 mps 735 mmHg 31%
    14:00 +39°C° 0 mm 1 mps 734 mmHg 26%
    15:00 +40°C° 0 mm 1 mps 734 mmHg 22%
    16:00 +40°C° 0 mm 2 mps 734 mmHg 24%
    17:00 +40°C° 0 mm 3 mps 734 mmHg 25%
    18:00 +40°C° 0 mm 4 mps 734 mmHg 27%
    19:00 +38°C° 0 mm 4 mps 734 mmHg 32%
    20:00 +36°C° 0 mm 4 mps 734 mmHg 38%
    21:00 +35°C° 0 mm 4 mps 735 mmHg 43%
    22:00 +34°C° 0 mm 4 mps 735 mmHg 45%
    23:00 +33°C° 0 mm 3 mps 735 mmHg 47%

    4 April, Saturday

    Time Temperature Precipitation Wind Pressure Humidity
    00:00 +33°C° 0 mm 3 mps 735 mmHg 48%
    01:00 +31°C° 0 mm 2 mps 735 mmHg 52%
    02:00 +30°C° 0 mm 2 mps 734 mmHg 56%
    03:00 +29°C° 0 mm 2 mps 734 mmHg 59%
    04:00 +29°C° 0 mm 2 mps 734 mmHg 63%
    05:00 +28°C° 0 mm 2 mps 735 mmHg 66%
    06:00 +28°C° 0 mm 2 mps 735 mmHg 69%
    07:00 +29°C° 0 mm 2 mps 735 mmHg 64%
    08:00 +30°C° 0 mm 2 mps 736 mmHg 59%
    09:00 +31°C° 0 mm 1 mps 736 mmHg 54%
    10:00 +32°C° 0 mm 1 mps 736 mmHg 46%
    11:00 +34°C° 0 mm 1 mps 736 mmHg 38%
    12:00 +36°C° 0 mm 1 mps 736 mmHg 31%
    13:00 +38°C° 0 mm 2 mps 735 mmHg 27%
    14:00 +39°C° 0 mm 2 mps 734 mmHg 24%
    15:00 +40°C° 0 mm 2 mps 734 mmHg 20%
    16:00 +40°C° 0 mm 3 mps 734 mmHg 21%
    17:00 +39°C° 0 mm 3 mps 734 mmHg 22%
    18:00 +40°C° 0 mm 4 mps 734 mmHg 23%
    19:00 +37°C° 0 mm 4 mps 734 mmHg 28%
    20:00 +36°C° 0 mm 4 mps 735 mmHg 32%
    21:00 +34°C° 0 mm 4 mps 735 mmHg 36%
    22:00 +34°C° 0 mm 4 mps 735 mmHg 39%
    23:00 +33°C° 0 mm 3 mps 735 mmHg 41%
    Show more